Regional Weather Roundup
Issued by NWS Bismarck, ND

Home | Current Version | Previous Version | Text Only | Print | Product List | Glossary On
Versions: 1 2 3 4 5 6 7 8 9 10 11 12 13 14 15 16 17 18 19 20 21 22 23 24 25 26 27 28 29 30 31 32 33 34 35 36 37 38 39 40 41 42 43 44 45 46 47 48 49 50
000
ASUS43 KBIS 020610
RWRBIS

NWR BROADCAST TEXT
NATIONAL WEATHER SERVICE BISMARCK ND
100 AM CDT WED SEP 02 2015

NOTE: "FAIR" INDICATES FEW OR NO CLOUDS BELOW 12,000 FEET WITH NO
SIGNIFICANT WEATHER AND/OR OBSTRUCTIONS TO VISIBILITY.


CITY           SKY/WX    TMP DP  RH WIND       PRES   REMARKS
WILLISTON      CLEAR     60  42  51 NE3       29.79S
MINOT          FAIR      67  60  78 SE7       29.76F
MINOT AFB      NOT AVBL
BISMARCK       CLEAR     70  66  87 E5        29.79S
DICKINSON      CLEAR     64  55  72 S8        29.80S
GARRISON         N/A     67  62  84 E6        29.78F
HETTINGER ARPT CLEAR     53  49  86 NW3       29.84S
JAMESTOWN      FAIR      67  65  93 SE6       29.82F
HAZEN          FAIR      63  59  88 CALM      29.78S
STANLEY        FAIR      66  64  94 NW5       29.82R
$$

CITY           SKY/WX    TMP DP  RH WIND       PRES   REMARKS
GRAND FORKS    FAIR      68  58  70 SE6       29.82S
GRAND FORKS AF FAIR      65  57  76 SE6       29.82S
DEVILS LAKE    FAIR      70  57  64 SE9       29.81F
FARGO          FAIR      73  69  87 SE7       29.83S
CAVALIER       FAIR      57  55  94 CALM      29.81F
GRAFTON        FAIR      63  57  82 S3        29.82F
GWINNER          N/A     68  68 100 CALM      29.84S
LANGDON        FAIR      66  57  72 S9        29.84F
$$

CITY           SKY/WX    TMP DP  RH WIND       PRES   REMARKS
ABERDEEN       CLEAR     64  61  90 SE6       29.83S
MOBRIDGE       CLEAR     67  66  97 SE6       29.78S
BUFFALO          N/A     69  54  58 S6        29.79S
RAPID CITY     CLEAR     62  53  72 NW7       29.87F
GLASGOW        CLEAR     60  41  49 E9        29.75F
SIDNEY         CLEAR     63  39  42 NW7       29.78S
WOLF POINT     CLEAR     58  44  60 E6        29.77S
GLENDIVE       CLEAR     64  37  36 NE6       29.81S
MILES CITY     CLEAR     65  37  35 NE8       29.77S
BAKER          CLEAR     62  51  67 SE5       29.83F
$$

CITY           SKY/WX    TMP DP  RH WIND       PRES   REMARKS
BILLINGS       CLEAR     68  30  24 N3        29.79F
GREAT FALLS    MOCLDY    67  32  27 E9        29.76F
REGINA         PTCLDY    54  46  76 SE9       29.77R
ESTEVAN        PTCLDY    55  48  76 NE8       29.78F
$$



USA.gov is the U.S. government's official web portal to all federal, state and local government web resources and services.